Flag for U.S.A. Weather past 2 weeks in El Paso, Texas, U.S.A.

Now
72 °F

Partly sunny.


Feels Like: 75 °F
Forecast: 71 / 92 °F
Wind: 12 mph from North

Location: El Paso International Airport

Current Time: Aug 29, 2015 at 9:15:31 AM

Latest Report: Aug 29, 2015 at 7:51 AM


Visibility: 10 mi

Pressure: 29.96 "Hg (26.26 "Hg at 1142m altitude)

Humidity: 66%

Dew point: 60 °F

Location of El PasoLocation

Historic Weather in El Paso — Graph

°F

El Paso temperature yesterday

Maximum temperature yesterday: 98 °F (at 4:51 PM)
Minimum temperature yesterday: 73 °F (at 6:51 AM)
Average temperature yesterday: 83 °F

Past Weeks' High & Low Weather Summary

 TemperatureHumidityPressure
High102 °F (Aug 14, 4:51 PM)90% (Aug 24, 4:51 AM)30.03 "Hg (Aug 24, 4:51 AM)
Low68 °F (Aug 24, 6:51 AM)13% (Aug 20, 5:51 PM)29.52 "Hg (Aug 18, 5:51 PM)
Average85 °F40%29.82 "Hg
* Reported Aug 14 7:51 AM — Aug 29 7:51 AM, El Paso, Weather by CustomWeather, © 2015

Note: Actual official high and low records may vary slightly from our data, if they occured in-between our weather recording intervals... More about our weather records

Advertising

El Paso weather history for previous 24 hours

 ConditionsComfort  
Time TempWeatherWind HumidityBarometerVisibility
7:51 AM
Sat, Aug 29
72 °FPartly sunny.12 mph66%29.96 "Hg10 mi
6:51 AM71 °FPartly cloudy.8 mph68%29.92 "Hg10 mi
5:51 AM72 °FPassing clouds.7 mph66%29.90 "Hg10 mi
4:51 AM72 °FPassing clouds.6 mph66%29.89 "Hg10 mi
3:51 AM73 °FPassing clouds.8 mph66%29.90 "Hg10 mi
2:51 AM73 °FPassing clouds.5 mph71%29.88 "Hg10 mi
1:51 AM72 °FLight rain. Partly cloudy.10 mph78%29.86 "Hg10 mi
12:51 AM74 °FThunderstorms. Passing clouds.8 mph71%29.87 "Hg4 mi
11:51 PM
Fri, Aug 28
75 °FPassing clouds.No wind62%29.89 "Hg10 mi
10:51 PM77 °FPassing clouds.8 mph52%29.89 "Hg10 mi
9:51 PM77 °FPartly cloudy.8 mph54%29.90 "Hg10 mi
8:51 PM78 °FPartly cloudy.12 mph48%29.88 "Hg10 mi
7:51 PM77 °FBroken clouds.18 mph56%29.86 "Hg10 mi
7:00 PM88 °FBroken clouds.14 mph33%30.03 "Hg10 mi
5:51 PM95 °FBroken clouds.13 mph20%29.72 "Hg10 mi
4:51 PM98 °FScattered clouds.8 mph19%29.72 "Hg10 mi
3:51 PM96 °FScattered clouds.9 mph20%29.74 "Hg10 mi
2:51 PM96 °FBroken clouds.5 mph22%29.76 "Hg10 mi
1:51 PM94 °FPartly sunny.5 mph25%29.80 "Hg10 mi
12:51 PM92 °FScattered clouds.No wind27%29.83 "Hg10 mi
11:51 AM89 °FScattered clouds.3 mph29%29.85 "Hg10 mi
10:51 AM86 °FScattered clouds.No wind35%29.87 "Hg10 mi
9:51 AM82 °FScattered clouds.No wind41%29.87 "Hg10 mi
Weather by CustomWeather, © 2015

See weather overviewHow to use our weather pages